www.pogodaiklimat.ru

Погода и климат >> Архив погоды >> Чили >> Isla De Pascua


ПОГОДА в Isla De Pascua

  • Прогноз погоды в Isla De Pascua
  • Монитор погоды в Isla De Pascua
  • Климат города

АРХИВ ПОГОДЫ в Isla De Pascua

Время (UTC), дата Ветер
(напр.,м/с)
 
Видим.   Явления Облачность Т
(С)
Тd
(С)
f
(%)
Тe
(С)
Тes
(С)
Комфортность P
(гПа)
Po
(гПа)
Тmin
(С)
Tmax
(С)
R
(мм)
R24
(мм)
S
(см)
12 15.11 В 6 15 км 6/6 750 м
[Cu med, cong]
+18.3 +13.2 72 +18 +18 1023.3 1018.1
15 15.11 В 10 15 км {ливн. осадки} 4/4 900 м
[Cu med, cong]
+21.1 +12.4 58 +23 +23 комфорт 1025.0 1019.9 +16.3
18 15.11 В 10 15 км 6/6 900 м
[Cu med, cong]
+22.5 +12.9 55 +25 +26 комфорт 1025.4 1020.3
21 15.11 В 10 15 км 6/6 900 м
[Cu med, cong]
+22.5 +12.9 55 +25 +26 комфорт 1024.2 1019.1
00 16.11 В 10 20 км 3/3 900 м
[Cu med, cong]
+21.5 +12.7 57 +24 +24 комфорт 1023.4 1018.3
03 16.11 В 7 10 км 6/6 900 м
[Cu hum]
+19.6 +13.4 67 +21 +21 комфорт 1024.7 1019.5 +23.7
06 16.11 В 8 10 км 4/4 750 м
[Cu hum]
+19.0 +13.9 72 +19 +19 1024.7 1019.5
09 16.11 В 6 10 км 3/3 750 м
[Cu hum]
+18.9 +13.8 72 +19 +19 1023.2 1018.0
12 16.11 В 6 10 км 6/3 600 м
[Cu hum Ci fib]
+18.4 +14.4 78 +18 +18 1022.8 1017.6
15 16.11 В 8 20 км 9/6 600 м
[Cu med, cong Ci]
+21.0 +15.0 69 +24 +24 комфорт 1023.9 1018.8 +18.1
18 16.11 В 10 15 км {ливн. осадки} 8/8 450 м
[Cu med, cong]
+20.0 +15.5 75 +22 +22 комфорт 1023.7 1018.5
21 16.11 В 5 4000 м град {ливн. осадки} 10/10 240 м
[Cb cap]
+18.3 +17.2 93 +19 +19 1021.9 1016.8
00 17.11 СВ 3 15 км {ливн. осадки} 8/8 600 м
[Cu med, cong]
+20.5 +17.2 81 +24 +25 комфорт 1021.1 1016.0
03 17.11 В 7 8000 м слабый ливневой дождь 10/10 600 м
[Cu Sc]
+17.8 +16.3 91 +17 +17 1022.5 1017.3 +21.8
06 17.11 В 4 15 км {ливн. осадки} 3/3 1200 м
[Cu med, cong]
+19.0 +17.2 89 +20 +20 1023.9 1018.7
09 17.11 В 4 15 км {ливн. осадки} 3/3 1200 м
[Cu hum]
+18.7 +16.9 89 +20 +20 1022.6 1017.4
12 17.11 В 5 15 км в посл. час ливневой дождь 8/8 600 м
[Cu Sc]
+18.5 +17.0 91 +19 +19 1022.6 1017.4
15 17.11 В 7 10 км {гроза, ливн. осадки} 10/10 450 м
[Cb calv]
+18.5 +16.3 87 +19 +19 1024.3 1019.1 +17.9
18 17.11 В 3 7000 м слабый ливневой дождь {гроза} 10/6 500 м
[Cu med, cong As op]
+17.7 +15.4 86 +18 +19 1025.3 1020.1
21 17.11 ЮВ 4 8000 м слабый ливневой дождь 10/6 300 м
[Cu med, cong Ac trans]
+18.4 +17.4 94 +19 +21 1024.9 1019.7
00 18.11 В 2 8000 м слабый ливневой дождь 10/10 500 м
[Cu Sc]
+18.9 +17.6 92 +21 +21 комфорт 1024.1 1018.9
03 18.11 В 4 15 км {ливн. осадки} 3/3 600 м
[Cu hum]
+18.7 +16.3 86 +20 +20 1025.3 1020.1 +19.9
06 18.11 В 5 15 км 3/3 600 м
[Cu hum]
+18.8 +17.0 89 +20 +20 1026.1 1020.9
09 18.11 В 5 15 км 9/3 600 м
[Cu hum Ac trans]
+19.1 +16.7 86 +20 +20 1024.8 1019.6
12 18.11 В 5 15 км 10/3 600 м
[Cu hum Ac trans]
+18.9 +16.7 87 +20 +20 1024.5 1019.3
15 18.11 В 7 15 км 5/5 500 м
[Cu med, cong]
+21.1 +16.6 75 +25 +25 комфорт 1025.9 1020.8 +18.4
18 18.11 В 7 15 км 6/6 600 м
[Cu Sc]
+21.9 +17.3 75 +26 +28 душно 1026.4 1021.3
21 18.11 В 7 15 км в посл. час ливневой дождь 6/6 600 м
[Cu Sc]
+21.4 +16.2 72 +25 +27 комфорт 1025.0 1019.9
00 19.11 ЮВ 8 15 км 6/6 600 м
[Cu Sc]
+21.7 +16.9 74 +26 +26 душно 1024.2 1019.1
03 19.11 В 6 10 км 5/5 600 м
[Cu med, cong]
+19.5 +15.8 79 +21 +21 комфорт 1025.1 1019.9 +22.7
06 19.11 В 5 10 км 3/3 600 м
[Cu hum]
+19.1 +15.2 78 +20 +20 1025.5 1020.3
09 19.11 В 4 10 км 4/4 600 м
[Cu med, cong]
+18.8 +15.9 83 +20 +20 1024.0 1018.8
12 19.11 В 5 10 км 4/4 600 м
[Cu med, cong]
+18.6 +15.4 82 +19 +19 1023.3 1018.1
15 19.11 В 6 10 км в посл. час ливневой дождь 6/6 450 м
[Cu hum]
+20.2 +17.1 82 +23 +24 комфорт 1024.1 1019.0 +18.3
18 19.11 В 8 10 км 5/5 600 м
[Cu hum]
+22.9 +16.6 68 +28 +29 душно 1023.8 1018.7
21 19.11 ЮВ 9 10 км 4/4 600 м
[Cu hum]
+22.9 +16.6 68 +28 +29 душно 1022.8 1017.7
00 20.11 В 7 10 км 5/5 600 м
[Cu hum]
+20.5 +15.8 74 +23 +24 комфорт 1022.1 1017.0
03 20.11 В 6 15 км 4/4 600 м
[Cu med, cong]
+19.9 +16.2 79 +22 +22 комфорт 1023.1 1017.9 +23.7
06 20.11 В 2 15 км 3/3 600 м
[Cu med, cong]
+18.6 +15.7 83 +20 +20 1023.7 1018.5
09 20.11 В 4 15 км 4/4 600 м
[Cu med, cong]
+19.2 +16.5 84 +21 +21 комфорт 1022.4 1017.2
12 20.11 В 5 15 км 4/4 600 м
[Cu med, cong]
+18.8 +16.4 86 +20 +20 1021.6 1016.4
15 20.11 В 9 20 км 4/4 600 м
[Cu Sc]
+21.7 +16.9 74 +26 +26 душно 1022.4 1017.3 +18.4
18 20.11 В 8 20 км 4/4 600 м
[Cu med, cong]
+22.8 +16.2 66 +27 +29 душно 1023.0 1017.9
21 20.11 В 8 20 км 8/3 600 м
[Cu med, cong Ci]
+23.0 +16.2 66 +28 +30 душно 1022.3 1017.2
00 21.11 В 6 20 км 8/4 600 м
[Cu med, cong Ci]
+21.8 +16.4 71 +26 +26 душно 1022.2 1017.1
03 21.11 В 6 10 км 8/5 600 м
[Cu hum Ci fib]
+20.0 +15.9 77 +22 +22 комфорт 1023.7 1018.5 +24.3
06 21.11 В 6 10 км 6/3 600 м
[Cu hum Ci fib]
+19.8 +16.1 79 +22 +22 комфорт 1024.5 1019.3
09 21.11 В 6 10 км в посл. час ливневой дождь 8/6 600 м
[Cu Sc]
+19.1 +16.7 86 +20 +20 1023.2 1018.0
12 21.11 В 6 10 км {ливн. осадки} 6/6 600 м
[Cu hum]
+19.5 +16.6 83 +21 +21 комфорт 1023.5 1018.3
15 21.11 В 6 15 км 8/8 600 м
[Cu med, cong]
+20.8 +17.5 81 +24 +25 комфорт 1025.1 1020.0 +18.1
18 21.11 В 10 20 км 5/5 600 м
[Cu hum]
+23.4 +16.6 66 +28 +29 душно 1025.4 1020.3
21 21.11 В 4 н/о н/о -52.7 1010.6
00 22.11 В 7 20 км 4/4 600 м
[Cu hum]
+22.0 +16.1 69 +26 +27 душно 1024.6 1019.5
03 22.11 В 5 15 км 4/4 600 м
[Cu med, cong]
+20.3 +16.6 79 +23 +23 комфорт 1026.4 1021.2 +24.2
06 22.11 В 7 15 км 4/4 600 м
[Cu med, cong]
+20.0 +16.5 80 +22 +22 комфорт 1027.3 1022.1

 

Местоположение метеостанции Isla De Pascua (Чили): широта -27.16 долгота -109.40 высота над уровнем моря 69 м.

В архиве по умолчанию представлена погода в Isla De Pascua за последнюю неделю. Архивные данные за месяц целиком и за предыдущие месяцы, начиная с января 2011 года, Вы можете получить, выбрав интересующий диапазон дат из раскрывающегося списка и нажав кнопку "Ввод!".

Внимание! Время в таблицах - всемирное. Для получения местного времени необходимо прибавить поправку, которая в Isla De Pascua равна -4 ч.

Смотрите также архив погоды в соседних городах и на ближайших метеорологических станциях:

Пояснения к столбцам:

Ветер - указаны скорость ветра в м/с - средняя за 10 мин, порывы в срок и между сроками (в фигурных скобках) и направление, откуда дует ветер: С - северный, СВ - северо-восточный, В - восточный, ЮВ - юго-восточный, Ю - южный, ЮЗ - юго-западный, З - западный, СЗ - северо-западный.
Видимость - горизонтальная дальность видимости в метрах или километрах. При видимости от 1 до 10 км при отсутствии осадков обычно наблюдается дымка, при ухудшении видимости до 1 км и менее - туман. В сухую погоду видимость может ухудшаться дымом, пылью или мглою.
Явления - указаны атмосферные явления, наблюдавшиеся в срок или в последний час перед сроком; фигурными скобками обозначены явления, наблюдавшиеся между сроками (за 1-3 часа до срока); квадратными скобками обозначены град или гололедные отложения с указанием их диаметра в мм.
Облачность - указаны через наклонную черту общая и нижняя облачность в баллах и высота нижней границы облаков в метрах; квадратными скобками обозначены формы облаков: Ci - перистые, Cs - перисто-слоистые, Cc - перисто-кучевые, Ac - высококучевые, As - высокослоистые, Sc - слоисто-кучевые, Ns - слоисто-дождевые, Cu - кучевые, Cb - кучево-дождевые. Подробнее классификацию облаков см. в Атласе облаков (PDF).
T - Температура воздуха - температура, измеренная на высоте 2 м над землей.
Td - Температура точки росы - температура, при понижении до которой содержащийся в воздухе водяной пар достигнет насыщения.
f - Относительная влажность воздуха - влажноcть воздуха, измеренная на высоте 2 м над землей.
Te - Эффективная температура - температура, которую ощущает одетый по сезону человек в тени. Характеристика душности погоды. При расчете учитывается влияние влажности воздуха и скорости ветра на теплоощущения человека.
Tes - Эффективная температура на солнце - температура, которую ощущает человек, с поправкой на солнечный нагрев. Характеристика знойности погоды. Зависит от высоты солнца над горизонтом, облачности и скорости ветра. Ночью, в пасмурную погоду, а также при ветре 12 м/с и более поправка равна нулю.
P - Атмосферное давление - приведенное к уровню моря атмосферное давление.
Po - Атмосферное давление - измеренное на уровне метеостанции атмосферное давление.
Tmin - Минимальная температура - минимум температуры воздуха на высоте 2 м над землей.
Tmax - Максимальная температура - максимум температуры воздуха на высоте 2 м над землей.
R - Количество осадков - Количество выпавших осадков за период времени, мм. При наведении курсора мыши на число - период времени, за который выпало указанное количество осадков.
R24 - Количество осадков - Количество выпавших осадков за 24 часа, мм.
S - Снежный покров - Высота снежного покрова, см. При наведении курсора мыши на число - состояние снежного покрова и степень покрытия местности в баллах.